Wind_Speed
55 56 56 56 56 57 57 58 58 58 59 60 60 61 62 63 64 65 66 66 67 68 69 70 71 72 73 74 75 76 76 77 78 79 79 80 81 82 82 83 84 85 85 86 87 87 88 88 89 89 89 89 89 89 88 88 87 86 85 83 82 81 80 79 78 77 76 76 75 75 74 74 73 73 72 72 71 71 70 69 69 68 68 67 67 67
57 57 57 57 57 57 58 58 59 59 60 61 62 62 63 64 65 66 67 68 69 70 71 72 73 73 74 75 76 77 78 79 79 80 81 82 83 83 84 85 85 86 87 87 87 88 88 88 88 87 87 86 85 84 83 82 81 80 79 78 77 76 76 75 75 75 74 74 74 74 74 74 74 73 73 72 72 71 71 70 69 69 68 67 66 66
57 58 58 59 58 59 59 60 60 60 61 62 63 63 64 65 66 67 68 69 70 71 72 73 74 75 75 76 77 78 79 80 81 82 82 83 84 85 85 86 86 86 86 86 86 85 85 84 83 82 81 80 79 79 78 77 77 76 76 76 75 75 75 75 75 75 75 75 75 75 75 75 75 75 74 74 74 73 73 72 71 70 69 68 68 67
58 59 59 60 60 60 61 61 62 62 63 63 64 65 66 66 67 68 69 70 71 72 73 74 75 75 76 77 78 79 80 81 82 83 84 84 85 85 85 85 85 84 83 82 82 81 80 79 78 78 77 77 77 76 76 76 76 76 76 76 76 76 76 76 77 77 77 77 77 77 77 77 76 76 76 76 75 75 74 74 73 72 71 71 70 69
59 59 60 60 61 61 62 63 63 64 65 66 66 67 67 68 69 70 70 71 72 73 74 75 75 76 77 78 79 80 81 82 82 83 83 83 82 82 81 81 80 79 79 78 77 77 77 77 77 77 77 77 77 77 78 78 78 78 78 78 78 78 79 79 79 79 79 79 78 78 78 78 78 78 78 77 77 77 76 76 75 74 73 73 72 71
60 60 61 61 62 63 64 64 65 66 67 67 68 69 69 70 70 71 72 72 73 74 75 76 76 77 78 79 79 79 80 80 79 79 79 78 78 77 77 77 76 76 76 76 77 77 77 78 78 78 79 79 79 80 80 80 80 80 80 81 81 81 81 81 81 81 81 81 81 80 80 80 80 80 79 79 79 78 78 78 77 76 75 74 74 73
61 61 62 62 63 64 65 66 66 67 68 69 69 70 71 71 72 73 73 74 75 75 76 76 76 77 77 77 77 76 76 75 75 75 74 74 75 75 75 76 76 77 77 78 78 79 79 80 80 81 81 81 82 82 82 82 82 82 83 83 83 83 83 83 83 83 83 83 83 82 82 82 82 81 81 81 80 80 80 80 79 78 78 77 76 75
62 63 63 64 65 66 67 67 68 69 69 70 71 72 72 73 73 74 74 75 75 75 75 75 74 74 73 73 72 72 72 72 72 72 73 74 75 75 76 77 78 78 79 80 80 81 81 82 82 83 83 83 83 84 84 84 84 84 84 84 84 84 84 84 83 83 83 83 83 83 83 83 83 82 82 82 81 81 81 81 81 80 80 79 78 77
63 64 65 66 66 67 68 70 70 71 71 72 73 73 74 74 74 74 74 73 73 73 72 71 71 70 70 70 70 70 71 72 72 73 74 75 76 77 78 79 80 80 81 82 82 83 83 84 84 84 85 85 85 85 85 85 85 84 84 84 84 83 83 83 83 83 83 83 82 82 82 82 82 82 82 82 81 81 81 81 81 81 81 81 80 79
65 66 67 68 68 69 70 71 73 73 73 73 74 74 74 73 73 73 72 71 70 70 69 68 68 69 70 70 71 72 72 73 74 75 76 77 78 79 80 81 81 82 83 83 84 84 85 85 85 86 86 85 85 85 85 85 84 84 84 83 83 83 82 82 82 82 81 81 81 81 81 81 81 81 81 81 81 80 80 80 81 81 81 81 81 81
67 68 69 70 71 71 72 73 74 75 74 74 74 74 73 72 70 70 69 69 68 68 68 68 69 70 71 72 73 74 74 75 76 77 77 78 79 80 81 82 83 83 84 84 85 85 85 85 85 85 85 85 85 85 84 84 84 83 83 83 82 82 82 81 81 81 81 80 80 80 80 80 80 80 80 80 80 80 80 80 80 80 80 81 81 81
69 70 70 71 72 73 74 74 75 75 74 73 73 72 71 70 68 67 67 67 68 68 69 69 70 71 73 74 75 76 76 77 78 78 79 80 81 82 82 83 83 84 84 84 84 84 84 84 84 84 84 84 83 83 83 83 83 83 82 82 82 82 81 81 81 80 80 80 80 79 79 79 79 79 79 79 79 79 79 79 79 79 79 80 80 81
70 71 72 73 74 74 74 74 74 74 73 71 70 69 68 68 67 66 67 67 68 69 70 71 72 74 75 76 77 78 78 79 79 80 80 81 82 83 83 83 83 83 83 83 83 83 82 82 82 82 82 82 82 82 82 82 82 82 82 81 81 81 81 80 80 80 79 79 79 79 78 78 78 78 78 78 78 78 78 78 78 78 78 79 79 80
71 72 73 73 74 74 74 73 72 71 70 68 67 66 66 67 67 67 68 69 70 71 72 73 74 75 76 78 79 79 80 80 80 81 81 81 82 82 82 82 82 82 81 81 81 81 81 80 80 80 80 80 80 80 81 81 80 80 80 80 80 79 79 79 79 78 78 78 78 77 77 77 77 76 76 76 76 76 76 77 77 77 77 78 78 79
72 73 73 73 73 73 72 70 69 68 67 66 66 66 66 67 68 69 70 71 72 73 73 74 75 77 78 79 80 80 80 80 80 80 80 80 81 81 80 80 80 80 80 79 79 79 79 78 78 78 78 78 78 78 78 78 79 78 78 78 78 77 77 77 77 76 76 76 76 76 76 76 75 75 75 75 75 75 75 75 76 76 76 77 77 78
73 72 72 71 71 70 68 67 66 65 65 65 66 66 67 69 70 71 71 73 73 74 75 76 77 78 79 80 80 80 80 80 79 79 78 78 80 80 79 78 78 79 78 77 77 77 77 76 76 76 75 75 76 76 76 76 76 76 76 76 76 76 76 75 75 75 75 74 74 74 74 74 74 74 74 74 74 74 74 74 74 75 75 76 76 77
72 71 70 68 67 66 65 65 64 64 65 66 67 68 69 70 71 72 73 74 75 76 77 77 78 78 78 79 80 80 79 78 78 78 77 77 77 78 77 76 76 76 76 75 75 75 74 74 73 73 73 73 73 74 74 74 75 75 75 75 75 75 75 74 74 74 74 74 73 73 73 73 73 73 73 73 73 72 73 73 73 73 74 75 75 76
69 68 66 65 64 64 64 64 65 65 66 67 68 69 70 72 73 74 74 75 76 77 77 77 78 77 77 77 78 79 78 76 76 76 76 75 75 76 75 74 74 74 74 73 73 72 71 71 71 71 71 71 72 72 73 73 74 74 75 75 75 75 75 75 75 74 74 74 74 73 73 73 73 73 72 72 72 72 72 72 72 72 73 73 74 75
66 64 63 63 63 63 64 65 66 67 68 69 70 71 72 73 74 74 75 76 76 76 76 76 76 76 76 75 76 77 76 74 74 74 74 73 73 74 73 72 71 71 71 70 70 70 69 69 69 69 70 71 71 72 73 74 74 75 75 76 76 76 77 77 76 76 76 75 75 75 74 74 74 73 73 72 72 72 72 72 71 72 72 72 73 73
63 62 62 62 63 64 65 66 67 68 69 70 71 72 73 74 74 75 75 75 75 75 75 74 74 74 74 73 74 75 74 73 72 72 72 71 71 71 71 69 69 69 69 68 68 68 67 68 68 69 70 71 72 73 74 75 76 77 77 78 78 79 79 79 79 78 78 78 77 77 76 75 75 74 74 73 73 72 72 72 72 71 71 72 72 72
61 62 62 63 64 65 67 68 68 69 70 71 72 72 73 73 74 74 74 74 74 73 73 72 72 72 72 71 71 72 72 71 70 70 70 69 69 69 68 67 66 66 67 67 67 67 67 68 69 70 71 73 74 75 76 77 78 79 80 80 81 81 81 81 81 81 80 80 79 78 78 77 76 75 75 74 74 73 73 72 72 72 72 72 72 72
62 63 63 64 65 66 67 68 69 70 71 71 72 72 72 72 72 72 73 72 71 71 71 70 70 69 69 69 69 69 69 68 68 68 67 66 66 66 66 65 65 65 66 66 66 67 68 69 70 72 73 75 76 77 79 80 81 81 82 82 83 83 83 83 82 82 81 81 80 79 78 77 77 76 75 75 74 74 73 73 73 72 72 72 72 72
62 63 64 65 66 67 68 69 70 71 72 72 72 72 72 71 71 71 70 70 69 69 68 68 67 67 67 66 66 66 66 66 65 65 65 64 64 64 64 64 64 65 66 67 67 68 70 71 72 74 75 77 78 79 80 81 82 83 83 84 84 84 83 83 82 81 81 80 79 78 77 76 76 75 74 74 73 73 73 73 72 72 72 72 72 72
63 64 65 66 67 68 69 70 71 71 72 72 72 72 72 71 70 69 69 68 67 66 66 65 65 64 64 64 63 64 64 64 63 63 63 63 63 63 64 64 65 66 67 68 69 70 71 73 74 75 77 78 80 81 82 82 83 84 84 84 83 83 82 81 80 79 78 77 76 75 74 74 73 73 72 72 72 72 71 71 71 71 71 71 71 71
64 65 66 67 68 69 70 70 71 71 71 71 71 70 70 69 68 67 67 66 65 64 64 63 62 61 62 61 61 62 62 62 62 62 62 62 63 63 64 65 66 67 68 69 70 71 72 74 75 77 78 79 80 81 82 82 83 83 82 81 81 80 78 77 76 75 74 73 72 71 71 70 70 70 69 69 69 69 69 69 69 69 69 69 69 69
65 66 67 68 68 69 69 70 70 70 70 69 68 68 67 66 65 64 64 63 62 62 61 60 60 59 59 59 59 60 61 61 61 61 62 62 63 64 66 67 67 68 69 71 72 73 74 75 76 78 79 80 81 81 81 81 80 79 78 77 76 74 73 72 71 69 69 68 67 67 66 66 66 66 66 66 66 66 66 66 66 67 67 67 67 67
66 66 67 67 68 68 68 68 68 68 68 67 66 65 64 63 62 62 61 61 60 59 59 58 57 57 58 57 58 59 60 61 62 62 62 62 63 65 67 68 69 69 70 72 73 73 74 76 77 78 79 79 79 79 78 77 75 74 72 71 69 68 67 65 65 64 63 62 62 62 61 61 61 61 61 62 62 62 62 63 63 64 64 64 64 65
66 66 66 67 67 67 67 67 67 66 65 65 64 63 62 61 60 59 59 59 58 57 57 56 55 56 56 56 57 59 60 61 62 62 63 63 64 66 68 69 70 70 71 72 73 74 75 76 77 77 77 77 76 74 73 71 69 67 66 64 62 61 60 59 59 58 57 57 56 56 56 56 56 56 57 57 57 58 58 59 59 60 60 61 61 62
65 65 66 66 66 66 65 65 65 64 63 62 61 60 59 58 57 57 57 57 56 55 55 55 55 55 55 56 57 59 60 61 62 63 63 64 65 67 68 69 70 72 72 73 74 75 75 75 75 75 74 73 71 68 66 64 62 60 59 57 56 55 54 53 53 52 52 51 51 51 51 51 51 51 52 52 52 53 54 54 55 56 56 57 58 58
64 64 65 65 64 64 63 63 62 61 60 59 59 58 57 56 55 55 55 55 54 54 54 54 55 55 56 56 57 59 60 61 62 63 64 64 66 68 69 70 71 72 73 73 73 74 74 74 72 70 69 67 65 62 59 57 55 54 52 50 49 49 48 48 48 48 47 47 47 47 47 47 47 47 47 48 48 49 49 50 51 52 53 53 54 55
63 63 63 63 63 62 61 60 59 58 57 57 56 55 55 54 53 53 53 53 53 53 54 54 55 56 56 56 57 58 60 62 63 64 64 65 66 68 69 70 72 73 74 73 73 72 72 71 69 66 63 60 58 56 53 51 49 47 46 45 44 44 44 44 44 44 44 44 44 44 44 44 44 44 44 45 45 46 47 48 49 50 51 51 52 52
62 61 61 61 60 59 58 57 56 55 55 54 53 53 52 52 52 51 51 52 52 53 53 54 55 56 56 57 57 58 60 62 64 64 64 65 66 68 69 70 71 73 74 73 72 70 68 66 64 61 58 54 52 50 47 45 43 42 41 41 41 41 41 42 42 42 42 42 42 43 43 43 43 43 43 43 44 44 45 46 47 48 49 49 50 51
60 59 59 58 57 56 55 54 54 53 52 52 51 51 50 50 50 50 51 51 52 53 53 54 55 55 56 57 58 59 61 62 64 64 65 65 66 68 69 70 71 72 72 71 70 67 64 61 59 56 53 49 46 44 42 41 39 38 38 38 38 39 39 40 40 41 41 41 41 41 41 41 41 41 41 42 42 43 44 45 46 46 47 47 48 48
57 56 56 55 54 54 53 52 51 51 50 50 49 49 49 49 49 50 51 52 52 53 53 54 54 55 56 57 58 60 61 62 64 65 65 66 66 68 69 70 70 70 69 68 66 64 60 57 54 50 47 45 42 40 38 37 36 36 35 36 36 37 38 38 39 39 39 40 40 40 40 41 41 41 41 42 42 43 44 44 45 45 46 46 46 46
54 54 53 52 52 51 51 50 50 49 49 48 48 48 48 48 49 50 51 52 52 53 54 54 54 55 56 57 58 60 61 63 64 65 65 66 67 68 69 69 69 68 66 64 62 59 55 53 50 46 43 41 39 37 35 34 33 34 34 34 35 35 36 37 37 38 38 38 39 40 40 41 41 42 42 43 43 44 44 45 45 45 44 44 44 44
51 51 50 50 49 49 48 48 48 47 47 47 47 47 47 48 49 50 51 51 52 53 53 54 55 56 56 57 58 60 61 62 64 65 65 66 67 67 68 68 67 66 63 61 58 55 51 49 46 43 40 37 35 34 33 32 31 32 32 33 34 34 35 36 36 37 38 38 39 40 41 42 42 43 44 44 44 45 45 45 45 44 43 42 41 41
48 48 48 47 47 47 46 46 46 46 46 46 46 47 47 48 49 50 51 51 52 52 53 54 55 56 57 58 59 60 61 62 63 64 65 66 66 67 66 66 65 64 61 58 55 52 49 46 43 40 37 34 32 31 31 31 31 31 32 32 33 34 35 36 36 37 38 39 40 41 41 42 43 44 44 45 45 45 45 45 44 43 42 41 41 41
46 46 46 45 45 45 44 44 44 44 45 45 46 47 47 48 49 50 50 51 51 52 53 54 55 56 58 59 59 60 61 62 63 64 65 65 66 66 65 65 64 62 58 55 52 50 47 43 40 38 36 33 32 31 30 31 31 32 32 33 33 34 35 36 37 38 39 40 40 41 42 43 43 44 44 45 45 45 45 45 44 43 42 42 42 42
44 44 44 44 43 43 43 43 43 44 44 45 45 46 47 48 49 50 50 51 51 52 52 53 55 56 58 59 60 61 61 62 63 63 64 65 65 65 64 63 61 59 57 54 51 47 45 42 39 37 35 33 32 32 31 32 33 34 34 34 35 35 36 37 38 39 39 40 41 41 42 43 44 44 44 45 45 45 45 45 45 44 44 44 44 44
42 42 42 42 42 42 42 42 42 43 44 45 45 46 47 48 49 49 50 50 51 51 52 53 55 56 57 59 60 61 61 62 63 63 64 64 64 64 63 61 59 57 54 52 49 46 43 41 39 37 36 35 34 33 33 34 35 36 36 37 37 37 37 38 39 40 40 41 42 43 44 44 44 44 44 44 44 44 45 45 45 46 46 46 46 46
41 41 41 41 41 41 41 41 42 43 44 45 45 46 47 47 48 49 49 50 51 51 52 53 55 56 57 59 60 61 61 62 63 63 63 63 63 62 61 59 57 54 52 50 47 45 43 41 39 38 37 37 36 36 36 37 38 39 39 39 39 39 39 39 40 41 42 43 44 45 45 46 45 44 43 43 43 43 44 44 45 46 46 46 46 46
39 39 39 39 40 40 40 41 42 43 44 45 45 46 46 47 47 48 48 49 50 51 52 53 54 56 57 59 60 61 62 62 63 63 63 63 62 61 59 57 55 52 50 48 45 44 42 41 40 39 39 39 39 39 40 40 41 42 42 42 42 41 40 41 41 43 44 45 46 46 47 46 45 44 43 41 41 41 42 42 43 44 45 46 46 46
38 38 38 38 39 40 40 41 42 43 44 45 45 46 46 46 47 47 48 49 50 51 52 53 54 55 57 58 60 61 62 63 63 64 63 63 61 60 58 55 53 50 48 46 44 43 42 41 41 41 41 41 42 42 43 43 43 44 44 44 44 43 43 42 43 44 45 46 47 47 47 47 45 43 42 41 40 40 40 41 42 43 44 45 45 46
37 37 37 38 39 39 40 41 42 43 44 44 45 45 46 46 46 47 47 48 49 50 52 53 54 56 57 58 60 61 62 63 64 64 63 62 60 58 56 54 51 49 47 44 43 42 42 42 42 42 43 44 44 45 46 46 46 45 45 45 45 44 44 44 44 45 46 47 47 47 47 46 45 43 42 41 40 40 40 40 41 42 43 44 45 46
36 36 37 38 39 39 40 41 42 43 43 44 44 45 45 46 46 47 47 48 49 51 52 53 55 56 58 59 60 61 62 63 63 63 62 61 59 57 54 52 50 48 46 44 42 42 42 42 43 44 45 45 46 47 48 48 47 46 45 45 44 44 44 44 44 45 46 47 47 46 46 46 45 44 43 42 41 41 41 41 42 43 44 45 46 47
35 36 37 37 38 39 40 41 42 42 43 44 44 44 45 45 46 47 47 48 49 51 52 54 55 57 58 60 61 62 62 62 62 61 60 59 57 55 53 51 49 47 45 43 42 42 41 42 43 44 45 46 47 48 48 48 48 47 45 44 44 43 43 44 45 46 46 46 46 45 45 44 44 43 43 42 42 41 42 42 43 44 44 45 46 47
35 36 36 37 38 39 40 40 41 42 42 43 44 44 45 45 46 47 48 49 50 51 53 55 56 58 59 61 62 62 62 61 60 59 57 56 54 52 51 50 48 47 45 43 42 41 42 42 43 45 46 47 47 47 47 47 47 46 45 44 43 43 43 44 44 45 45 45 44 43 43 42 42 41 41 40 39 39 39 40 41 42 43 44 44 45
34 35 36 37 38 39 39 40 40 41 42 42 43 44 45 45 46 47 48 49 50 52 54 56 57 59 60 61 62 62 61 60 58 57 55 53 51 49 48 48 47 46 45 43 42 41 41 42 43 44 46 47 47 46 46 45 44 44 44 43 43 43 43 43 43 43 42 42 42 41 41 40 40 39 38 38 37 36 36 36 37 38 39 40 41 42
34 35 36 36 37 38 39 39 40 40 41 42 43 43 44 45 46 47 48 50 51 53 55 57 58 60 61 61 61 61 60 58 56 54 52 50 48 47 46 45 45 44 43 42 41 41 41 42 43 44 45 45 45 45 43 42 42 42 42 42 41 41 41 40 40 40 40 40 40 40 40 39 39 39 38 37 36 35 34 34 34 35 36 36 37 38
34 34 35 36 36 37 38 39 39 40 41 41 42 43 44 45 46 47 49 50 52 54 56 57 58 59 60 60 59 58 57 55 53 51 49 47 45 44 43 43 42 42 41 40 40 40 40 41 41 42 43 43 43 43 41 40 39 39 39 39 39 39 38 38 37 38 38 39 39 40 40 40 40 39 39 38 37 36 35 34 33 34 34 35 35 36
34 34 35 35 36 37 37 38 39 39 40 41 41 42 43 44 46 47 49 51 53 54 56 57 58 58 58 57 56 55 53 51 48 46 45 43 42 41 40 40 40 39 38 38 37 38 38 39 39 39 40 40 41 40 40 39 38 37 36 36 36 36 36 37 37 38 38 39 40 41 41 42 42 42 41 41 40 38 36 35 34 34 34 35 35 35
Wind_Direction
288 288 288 288 288 288 288 287 287 287 287 287 286 286 286 286 285 285 285 284 284 284 283 283 283 282 282 282 282 282 281 281 281 281 281 281 281 281 281 281 281 280 280 280 280 280 280 281 281 281 281 281 281 281 280 281 281 281 280 281 280 280 280 280 280 280 280 280 280 280 280 280 280 280 279 279 279 279 278 278 278 277 277 276 276 275
288 288 288 288 288 288 287 287 287 287 287 287 287 286 286 286 286 286 286 285 285 285 285 284 284 283 283 283 283 283 283 282 282 282 282 282 282 282 282 282 282 281 281 281 281 281 281 281 281 281 281 281 281 281 281 281 281 281 281 281 281 280 280 280 280 280 280 279 279 279 279 279 279 279 279 279 279 278 278 278 278 277 277 276 276 276
288 288 288 288 288 288 288 287 287 287 287 287 287 287 287 287 287 286 286 286 286 285 285 285 284 284 284 284 284 284 283 283 283 283 283 283 283 283 283 283 283 283 283 283 283 282 282 282 282 282 282 282 282 282 282 282 281 281 281 281 281 280 280 280 280 279 279 279 279 279 279 279 278 278 278 278 278 278 278 278 277 277 277 276 276 275
288 288 288 288 288 288 288 288 288 288 287 287 287 287 287 287 287 286 286 286 285 285 285 285 284 284 284 284 284 284 284 284 284 284 284 284 284 284 284 284 284 284 284 284 284 283 283 283 283 283 283 283 283 282 282 282 282 282 281 281 281 281 280 280 280 279 279 279 279 278 278 278 278 278 278 277 277 277 277 277 277 276 276 276 275 275
288 288 288 288 288 288 288 288 288 288 288 288 288 288 288 288 287 287 286 286 285 285 285 284 284 284 284 284 284 284 284 284 284 284 284 284 284 284 284 284 284 284 284 284 284 284 284 284 284 284 283 283 283 283 283 283 282 282 282 282 281 281 281 280 280 280 279 279 278 278 278 278 277 277 277 277 276 276 276 276 276 275 275 275 274 274
288 288 288 288 288 288 288 288 289 289 289 289 289 289 289 288 288 287 287 286 286 285 285 285 285 285 285 285 285 285 285 285 285 285 285 285 285 285 285 285 285 285 285 285 285 285 285 284 284 284 284 284 284 284 283 283 283 283 282 282 282 281 281 281 280 280 279 279 279 278 277 277 277 276 276 275 275 275 275 274 274 274 274 274 273 273
288 288 288 288 288 288 288 289 289 289 289 289 289 289 289 289 289 288 288 287 287 287 286 286 286 286 286 286 285 285 285 285 285 285 286 286 286 286 286 286 286 286 286 285 285 285 285 285 285 285 285 285 284 284 284 284 283 283 283 282 282 282 281 281 280 280 279 279 278 278 277 277 276 275 275 274 274 273 273 273 273 272 272 272 272 271
288 288 288 288 288 289 289 289 289 290 290 290 290 290 290 290 289 289 289 288 288 288 287 287 287 287 287 287 287 287 286 286 286 286 286 286 287 287 287 287 287 287 287 287 287 286 286 286 286 286 286 286 285 285 285 284 284 284 283 283 282 282 281 281 280 280 279 279 278 278 277 276 276 275 274 273 273 272 271 271 271 270 270 270 270 270
288 288 289 289 289 289 290 290 290 291 291 291 291 290 290 290 290 290 290 289 289 289 289 289 288 288 288 288 288 288 287 287 287 287 287 288 288 288 288 288 288 288 288 288 288 288 288 288 287 287 287 286 286 286 285 285 285 284 284 283 283 282 282 281 281 280 279 279 278 278 277 276 275 275 274 273 272 271 270 270 269 269 268 268 268 268
289 289 289 290 290 291 291 291 292 292 292 292 292 291 291 291 291 291 291 290 290 290 290 289 289 289 289 289 289 289 289 289 289 289 289 289 289 289 290 290 290 290 290 290 290 289 289 289 289 288 288 288 287 287 286 286 285 285 284 284 283 283 282 282 281 280 280 279 278 278 277 276 275 275 274 273 272 271 270 269 268 267 267 266 266 266
290 290 290 291 291 292 292 292 292 292 293 292 292 292 292 292 291 291 291 291 291 290 290 290 290 290 290 290 290 290 290 290 290 290 290 291 291 291 291 291 291 291 291 291 291 290 290 290 290 289 289 289 288 288 287 287 286 286 285 285 284 284 283 282 282 281 280 280 279 278 277 277 276 275 274 273 272 271 270 269 268 267 266 265 264 264
290 291 291 291 292 292 292 292 292 292 293 292 292 292 292 292 292 291 291 291 291 291 291 291 291 291 291 291 291 291 291 291 291 291 292 292 292 292 292 292 292 292 292 292 291 291 291 291 291 290 290 290 289 289 288 288 287 287 286 285 285 284 284 283 282 281 281 280 279 278 278 277 276 275 274 273 272 271 270 269 268 266 265 264 263 263
290 291 291 291 292 292 292 292 292 292 292 292 292 292 292 292 292 292 291 291 291 291 292 292 292 292 292 292 292 292 292 292 292 292 293 293 293 292 292 292 292 292 292 292 292 292 292 292 291 291 291 290 290 290 289 288 288 287 287 286 285 285 284 283 283 282 281 280 280 279 278 277 276 275 274 273 272 271 270 269 268 266 265 264 263 262
290 291 291 291 291 291 292 292 292 292 292 292 292 292 292 292 292 292 292 292 292 292 292 292 293 293 293 293 293 293 293 293 293 293 293 293 293 293 293 293 293 293 293 293 293 292 292 292 292 292 291 291 291 290 290 289 288 288 287 287 286 285 285 284 283 282 282 281 280 279 278 277 276 275 274 273 272 271 270 269 268 266 265 264 262 261
290 290 291 291 291 291 291 291 291 291 291 291 292 292 292 292 292 292 292 292 293 293 293 293 293 293 294 294 294 294 294 294 294 294 294 294 294 293 293 294 293 293 293 293 293 293 293 293 292 292 292 292 291 291 290 290 289 288 288 287 286 286 285 284 283 283 282 281 280 279 278 278 277 276 275 273 272 271 270 269 267 266 265 264 262 261
290 290 290 290 291 291 291 291 291 291 291 291 292 292 292 292 292 293 293 293 293 294 294 294 294 294 294 294 294 294 294 294 294 294 294 294 294 294 294 294 294 294 294 294 294 293 293 293 293 292 292 292 291 291 290 290 289 289 288 288 287 286 285 284 284 283 282 281 280 280 279 278 277 276 275 274 273 271 270 269 267 266 265 263 262 261
290 290 290 290 290 290 291 291 291 291 291 292 292 293 293 293 293 294 294 294 294 294 295 295 295 295 295 295 294 294 294 295 295 295 295 295 295 295 295 295 295 295 294 294 294 294 293 293 293 293 292 292 292 291 291 290 290 289 289 288 287 287 286 285 284 283 282 282 281 280 279 278 277 276 275 274 273 272 270 269 268 266 265 264 262 261
289 290 290 290 290 290 291 291 291 292 292 292 293 293 293 294 294 294 294 295 295 295 295 295 295 295 295 295 295 295 295 295 295 295 295 295 295 295 295 295 295 295 295 295 295 294 294 294 293 293 293 292 292 292 291 291 290 290 289 289 288 287 286 286 285 284 283 282 281 280 279 279 278 277 276 275 273 272 271 270 268 267 266 264 263 261
289 290 290 290 290 291 291 291 292 292 293 293 293 294 294 294 295 295 295 295 295 295 295 295 295 295 295 295 295 295 295 296 296 296 296 296 296 296 296 296 296 296 296 295 295 295 295 295 294 294 294 293 293 292 292 291 291 290 290 289 289 288 287 286 285 284 284 283 282 281 280 279 278 277 276 275 274 273 272 270 269 268 266 265 264 262
289 290 290 290 291 291 292 292 292 293 293 294 294 294 295 295 295 295 295 295 295 296 296 296 296 296 296 296 296 296 296 296 297 297 297 297 297 297 297 297 297 297 297 296 296 296 296 296 295 295 295 294 294 293 292 292 291 291 290 290 289 288 287 287 286 285 284 283 282 281 280 279 279 278 277 275 274 273 272 271 270 269 267 266 265 263
289 290 290 291 291 292 292 293 293 293 294 294 294 295 295 295 295 295 295 295 296 296 296 296 297 297 297 297 297 297 297 297 298 298 298 298 298 298 298 298 298 298 298 297 297 297 297 297 296 296 296 295 294 294 293 292 292 291 290 290 289 288 287 287 286 285 284 283 283 282 281 280 279 278 277 276 275 274 273 271 270 269 268 267 266 264
290 290 291 291 292 292 293 293 294 294 294 294 295 295 295 295 295 295 296 296 296 297 297 297 297 298 298 298 298 298 298 299 299 299 299 299 299 299 299 299 299 299 299 298 298 298 298 298 297 297 296 296 295 294 294 293 292 291 290 290 289 288 287 287 286 285 284 283 283 282 281 280 279 278 277 275 274 273 272 271 270 269 268 267 266 265
291 291 292 292 293 293 293 294 294 294 294 295 295 295 295 295 296 296 296 297 297 298 298 298 299 299 299 299 300 300 300 300 300 300 300 301 301 300 300 300 300 300 299 299 299 299 299 298 298 297 297 296 296 295 294 293 292 292 291 290 289 288 287 286 286 285 284 283 282 281 280 279 278 277 276 275 274 273 272 271 270 269 268 267 266 266
291 292 292 293 293 293 294 294 294 294 294 295 295 295 295 296 296 297 297 298 298 299 299 300 300 300 300 301 301 301 301 301 301 301 302 302 302 301 301 301 301 301 300 300 300 300 299 299 299 298 298 297 296 295 295 294 293 292 291 290 289 288 287 286 285 285 284 283 282 281 280 279 278 277 275 274 273 272 271 270 270 269 268 267 266 265
292 292 293 293 293 294 294 294 294 294 294 295 295 295 296 296 297 297 298 299 299 300 300 301 301 301 301 302 302 302 301 302 302 303 303 303 303 302 302 302 302 302 301 301 301 301 301 300 300 299 299 298 297 296 295 294 293 292 291 290 289 288 287 286 286 285 284 283 282 281 280 279 278 276 275 274 273 272 271 270 269 268 267 266 266 265
292 293 293 293 293 294 294 294 294 294 295 295 296 296 297 298 298 299 300 300 300 301 302 302 302 302 302 303 303 303 302 303 303 304 304 304 304 304 303 303 303 303 302 302 302 302 302 302 301 300 300 299 298 297 296 295 293 292 291 291 290 289 288 287 286 285 284 283 282 281 280 279 278 277 276 275 274 273 272 271 269 268 267 267 266 265
293 293 293 293 293 294 294 294 294 295 295 296 296 297 298 299 300 301 301 301 302 302 303 303 303 303 304 304 304 304 304 304 304 305 305 305 305 304 304 304 304 304 304 304 304 304 304 303 303 302 301 300 299 298 297 295 294 293 292 291 291 290 289 288 287 286 286 285 284 283 282 281 280 279 278 276 275 274 273 272 270 269 268 267 266 265
293 293 293 293 294 294 294 295 295 296 296 297 298 299 300 301 302 302 302 302 303 304 304 304 304 305 305 305 305 305 305 305 305 305 306 306 306 305 305 305 305 305 305 305 305 305 306 305 304 303 302 301 300 299 297 296 295 294 294 293 292 291 291 290 289 288 287 287 286 285 284 283 282 281 280 279 277 276 275 273 272 271 269 268 267 265
293 293 293 293 294 294 295 296 296 297 298 299 300 301 302 302 303 303 303 304 305 305 305 305 306 306 306 306 306 306 306 305 306 306 307 307 307 306 306 307 307 307 307 307 307 307 307 307 306 305 304 303 301 300 299 297 297 296 295 295 294 293 293 292 291 291 290 289 288 287 287 286 285 284 282 281 280 279 277 276 274 272 271 269 268 266
293 293 293 294 295 295 296 297 298 299 300 301 302 303 303 304 304 305 305 305 306 306 306 306 307 307 307 307 307 307 306 306 306 307 308 308 308 308 308 309 309 309 310 310 310 310 310 309 308 307 305 304 302 301 300 299 299 298 298 297 297 296 295 295 294 293 293 292 291 291 290 289 288 287 286 285 283 282 280 279 277 275 273 271 269 268
293 294 295 295 296 297 298 299 300 301 302 303 304 305 305 306 306 306 306 306 307 307 307 307 307 307 307 308 308 308 307 307 308 308 309 310 310 310 311 312 312 312 312 313 313 313 312 311 309 308 307 305 304 303 302 302 301 301 301 300 300 299 298 298 297 297 296 296 295 294 294 293 292 291 290 289 287 286 284 283 281 279 277 275 273 271
295 295 296 297 298 299 300 302 303 304 304 305 306 306 306 307 307 307 307 308 308 308 308 308 308 308 308 308 308 308 308 308 309 310 311 312 312 312 313 314 315 315 315 316 316 315 314 313 311 309 308 307 306 305 305 305 305 304 304 303 302 302 301 301 300 300 300 300 299 299 298 297 296 295 294 293 291 290 288 287 285 284 282 280 278 276
296 297 298 299 300 302 303 304 305 305 306 306 307 307 307 307 308 308 308 308 309 309 309 309 309 309 309 309 309 309 309 310 310 311 313 314 314 315 315 316 317 317 318 318 318 318 317 315 313 311 310 309 309 308 307 307 307 307 306 305 304 303 303 303 303 303 303 303 303 303 302 301 300 299 298 297 295 294 293 291 290 289 288 286 284 281
298 299 300 301 303 304 305 305 306 306 307 307 307 307 308 308 308 308 309 309 309 309 309 309 309 309 309 310 310 310 311 311 312 313 314 315 316 317 318 319 319 320 321 321 320 320 319 317 315 314 313 312 311 310 310 309 308 308 306 305 304 304 303 304 304 304 305 305 305 305 304 303 303 302 300 299 298 297 296 295 295 294 293 292 290 287
300 301 302 303 304 305 306 307 307 307 307 307 307 308 308 308 309 309 309 310 310 310 310 309 309 309 310 310 311 312 312 313 314 315 316 317 318 319 320 321 322 322 323 323 322 322 321 319 317 316 315 314 313 312 311 310 309 308 306 305 304 304 304 304 305 305 305 305 305 304 304 303 302 301 300 299 298 297 296 296 296 296 295 294 293 291
302 303 304 305 306 307 307 307 307 308 308 308 308 308 309 309 309 310 310 310 310 310 310 310 310 310 310 311 312 313 314 314 315 316 317 318 320 321 322 323 323 324 325 325 324 323 322 320 319 317 316 315 314 312 311 310 308 307 305 305 305 305 305 305 305 305 305 305 304 304 303 302 301 300 299 298 297 296 296 296 295 295 295 294 293 292
304 305 305 306 307 307 307 307 308 308 308 308 309 309 310 310 310 310 310 310 310 310 310 310 310 310 311 312 313 314 315 316 317 318 319 320 321 322 323 324 325 325 326 327 326 325 324 322 320 318 317 315 314 312 310 309 307 305 304 304 305 305 305 306 306 306 305 305 305 304 304 303 302 301 299 298 297 295 295 295 294 294 293 293 292 292
305 306 306 307 307 307 307 307 308 308 308 309 309 310 310 311 311 311 310 310 310 310 310 310 311 312 313 313 314 315 316 317 318 319 320 321 322 323 324 325 325 326 327 328 327 327 325 323 321 319 316 314 312 310 309 307 305 304 303 304 305 305 306 306 306 306 306 306 306 306 305 305 304 302 300 299 297 295 294 293 293 292 292 291 292 292
306 306 306 307 307 307 307 308 308 308 309 309 310 310 311 311 311 311 311 310 310 310 311 311 312 313 314 315 316 317 317 318 319 320 321 322 322 323 324 325 326 326 327 328 328 328 327 324 322 319 316 313 311 309 307 305 304 303 303 304 305 305 306 306 306 306 306 306 307 307 307 306 305 303 301 299 297 295 293 292 290 290 289 289 290 290
306 306 306 307 307 307 308 308 308 309 310 310 311 311 311 311 311 311 311 311 311 311 312 312 313 314 315 316 317 318 319 319 320 321 321 322 322 323 324 324 325 326 327 328 328 328 327 325 322 319 316 313 310 308 307 305 304 304 304 304 305 305 306 306 305 305 306 306 307 307 307 306 305 303 301 299 297 294 292 290 289 288 287 287 287 288
306 307 307 307 308 308 308 309 310 310 311 311 311 312 312 312 312 312 312 312 312 313 313 314 315 316 317 317 318 319 320 320 320 321 321 322 322 322 323 323 324 325 326 327 328 328 327 326 323 320 317 314 312 310 308 307 305 305 305 305 305 305 305 305 304 304 305 305 306 306 306 306 305 303 301 299 296 294 291 290 288 287 286 286 285 285
307 307 308 308 309 309 310 311 311 312 312 312 312 312 313 313 313 313 313 313 314 314 315 316 317 317 318 319 319 320 320 320 320 321 321 321 321 321 322 322 322 323 324 325 326 327 327 326 324 321 319 316 314 312 310 309 307 306 306 305 304 304 304 303 303 303 304 305 306 306 307 306 306 304 302 300 297 294 291 289 288 286 286 285 284 284
307 308 308 309 310 311 311 312 312 313 313 313 313 313 314 314 314 314 314 315 315 316 316 317 318 319 319 320 320 320 320 320 320 320 320 320 320 320 320 320 321 321 322 323 325 325 326 325 324 322 321 319 317 315 314 312 311 309 307 306 305 304 304 303 303 303 304 305 306 307 307 307 307 306 304 302 299 295 292 290 288 286 285 284 283 283
308 309 310 311 312 312 313 313 314 314 314 314 315 315 315 315 315 315 316 316 317 317 318 319 319 320 320 320 320 321 320 320 320 319 319 319 319 319 319 319 319 319 320 321 323 324 325 325 324 323 322 320 319 318 317 315 314 312 310 308 307 305 305 304 304 305 306 307 308 309 309 309 308 307 306 303 300 297 294 291 289 286 285 284 283 282
310 311 311 312 313 314 314 314 315 315 315 316 316 316 316 317 317 317 317 318 318 319 319 320 320 321 321 321 321 321 320 320 319 319 318 318 318 318 318 318 318 318 319 320 321 322 323 323 323 322 322 321 320 319 318 317 316 315 313 311 309 308 307 307 307 308 309 310 311 311 311 311 310 309 307 305 302 299 296 293 290 288 286 284 283 283
311 312 313 314 314 315 315 315 316 316 317 317 317 318 318 318 318 319 319 320 320 321 321 321 322 322 321 321 321 320 320 319 318 318 317 317 317 317 317 317 317 317 317 318 319 321 322 322 322 322 321 320 320 319 319 318 317 316 315 313 312 311 310 310 311 311 312 313 314 314 314 314 313 312 310 308 305 302 298 295 292 289 287 286 285 284
313 314 314 315 315 316 316 317 317 318 318 319 319 319 319 320 320 321 321 322 322 322 322 322 322 322 322 321 321 320 319 318 318 317 317 316 316 316 316 316 316 316 316 317 318 319 321 321 321 321 320 320 320 319 319 319 318 317 316 315 314 313 313 313 314 314 315 316 317 317 317 317 316 316 315 313 311 308 305 301 297 293 290 288 286 285
314 315 315 316 316 317 317 318 319 319 320 320 321 321 321 322 322 323 323 323 324 324 324 324 323 323 322 322 321 320 319 318 317 317 316 316 316 316 316 316 316 316 316 316 317 318 319 320 320 321 320 320 320 320 320 319 318 317 316 315 315 315 315 316 317 317 318 319 319 320 319 319 319 319 319 319 318 317 314 310 306 301 297 293 290 288
315 316 316 317 317 318 319 320 321 321 322 322 322 323 323 324 324 325 325 325 325 325 325 325 324 324 323 322 321 320 319 318 317 317 317 317 317 317 317 317 317 317 316 316 316 317 318 319 320 320 320 320 320 320 320 320 318 317 316 316 316 316 317 319 319 320 320 320 321 320 320 319 319 319 319 320 321 322 320 318 314 310 306 301 297 293
317 317 317 318 319 320 321 322 322 323 323 324 324 325 325 326 326 327 327 327 327 327 327 326 326 325 324 323 322 321 320 319 319 318 318 318 319 319 319 319 319 319 318 318 317 317 318 319 320 321 321 321 320 320 320 320 319 317 317 317 318 319 320 322 323 323 322 322 321 321 320 318 318 317 317 317 318 319 320 319 318 315 311 308 304 300
317 318 319 320 321 321 322 323 324 324 325 325 326 326 327 328 328 329 329 329 329 329 328 328 327 327 326 325 324 323 322 322 322 322 322 322 322 323 323 323 323 323 322 321 320 320 319 320 321 322 322 322 322 321 321 320 319 319 319 320 322 323 324 324 325 325 324 323 322 321 319 318 316 315 314 313 314 314 315 316 316 314 312 310 308 306
Height
5692 5691 5691 5690 5690 5689 5687 5686 5686 5685 5683 5681 5681 5680 5678 5677 5675 5674 5672 5671 5669 5668 5666 5665 5664 5662 5660 5659 5657 5655 5654 5652 5650 5649 5647 5645 5644 5642 5641 5639 5638 5637 5635 5634 5633 5632 5630 5629 5628 5626 5625 5624 5623 5622 5621 5620 5619 5618 5617 5616 5615 5614 5613 5612 5612 5611 5610 5609 5609 5608 5607 5607 5607 5606 5606 5606 5606 5606 5606 5606 5607 5607 5608 5608 5608 5608
5688 5687 5686 5685 5685 5685 5683 5681 5681 5680 5678 5677 5675 5675 5673 5671 5670 5668 5667 5665 5664 5662 5660 5659 5657 5655 5654 5652 5650 5649 5646 5645 5643 5641 5640 5638 5636 5635 5633 5632 5630 5629 5628 5627 5625 5624 5623 5621 5620 5619 5618 5616 5615 5615 5613 5613 5612 5611 5610 5609 5608 5608 5607 5606 5605 5605 5604 5603 5603 5602 5601 5601 5600 5600 5600 5600 5600 5600 5600 5600 5600 5601 5601 5602 5602 5603
5684 5682 5681 5680 5680 5679 5678 5676 5675 5675 5674 5672 5670 5669 5668 5667 5665 5663 5661 5660 5658 5656 5654 5653 5651 5649 5647 5645 5644 5642 5640 5637 5635 5634 5632 5631 5629 5627 5626 5624 5623 5621 5620 5619 5618 5616 5615 5614 5613 5611 5610 5609 5608 5607 5606 5606 5605 5604 5603 5602 5602 5601 5600 5600 5599 5598 5598 5597 5596 5596 5595 5595 5595 5594 5594 5594 5594 5594 5594 5594 5594 5595 5595 5595 5596 5596
5679 5678 5676 5675 5675 5674 5672 5671 5670 5669 5668 5667 5665 5664 5663 5662 5660 5658 5656 5655 5653 5651 5649 5647 5645 5643 5641 5639 5637 5635 5633 5631 5629 5627 5625 5624 5622 5620 5618 5617 5615 5614 5613 5611 5610 5609 5608 5607 5605 5604 5603 5602 5601 5600 5600 5599 5598 5597 5596 5595 5595 5594 5593 5593 5592 5591 5591 5590 5590 5590 5589 5589 5588 5588 5588 5588 5587 5587 5587 5587 5588 5588 5589 5589 5589 5590
5674 5673 5671 5670 5669 5668 5666 5665 5664 5663 5662 5660 5660 5658 5657 5656 5654 5652 5650 5649 5647 5645 5643 5641 5639 5638 5635 5633 5631 5629 5627 5625 5623 5620 5619 5617 5615 5613 5612 5610 5609 5607 5606 5605 5603 5602 5601 5600 5599 5597 5596 5595 5594 5593 5593 5592 5591 5590 5589 5588 5588 5587 5586 5585 5585 5584 5584 5583 5583 5582 5582 5582 5581 5581 5581 5581 5580 5580 5580 5580 5581 5581 5582 5582 5583 5583
5669 5668 5666 5665 5664 5663 5661 5660 5659 5657 5656 5655 5654 5652 5651 5650 5648 5646 5644 5643 5641 5639 5637 5635 5633 5631 5629 5627 5625 5622 5620 5619 5616 5614 5612 5610 5608 5607 5605 5604 5602 5600 5599 5598 5596 5595 5594 5593 5591 5590 5589 5588 5587 5586 5585 5584 5584 5583 5582 5581 5580 5579 5578 5578 5577 5576 5576 5575 5575 5575 5575 5574 5574 5574 5574 5574 5573 5573 5573 5573 5574 5574 5575 5575 5576 5576
5664 5662 5661 5660 5658 5657 5655 5654 5653 5652 5651 5649 5648 5646 5645 5643 5641 5640 5638 5636 5634 5632 5630 5628 5626 5624 5622 5620 5618 5615 5614 5612 5610 5608 5606 5604 5602 5600 5599 5597 5595 5594 5592 5591 5590 5588 5587 5585 5584 5583 5582 5580 5580 5579 5578 5577 5576 5575 5574 5573 5572 5571 5570 5570 5569 5568 5568 5567 5567 5566 5566 5566 5566 5566 5566 5566 5566 5565 5565 5565 5566 5566 5567 5567 5568 5569
5658 5657 5656 5655 5654 5652 5650 5648 5647 5646 5645 5643 5641 5640 5638 5636 5635 5633 5631 5629 5627 5625 5623 5621 5619 5617 5615 5613 5611 5609 5607 5605 5604 5602 5600 5598 5596 5594 5592 5590 5589 5587 5585 5584 5582 5580 5579 5578 5576 5575 5574 5573 5571 5570 5570 5569 5568 5567 5566 5565 5564 5563 5562 5561 5560 5560 5559 5559 5558 5558 5558 5557 5557 5557 5557 5557 5557 5557 5557 5558 5558 5558 5559 5559 5560 5561
5653 5651 5650 5649 5648 5647 5645 5642 5640 5639 5639 5637 5635 5633 5632 5630 5628 5625 5624 5622 5620 5618 5616 5615 5612 5610 5608 5606 5605 5603 5601 5599 5597 5596 5594 5592 5590 5587 5585 5583 5581 5580 5578 5576 5574 5573 5571 5570 5568 5567 5566 5565 5563 5562 5561 5560 5559 5558 5557 5556 5555 5555 5554 5553 5552 5551 5550 5550 5550 5549 5549 5549 5549 5549 5549 5549 5549 5549 5549 5549 5549 5550 5550 5551 5551 5553
5648 5647 5645 5643 5642 5641 5640 5636 5633 5632 5632 5630 5628 5626 5625 5624 5622 5619 5617 5615 5613 5611 5610 5608 5606 5604 5601 5599 5597 5596 5595 5592 5590 5589 5588 5586 5583 5580 5578 5576 5574 5572 5570 5568 5566 5565 5563 5561 5560 5558 5557 5556 5555 5553 5552 5551 5550 5550 5549 5548 5547 5546 5545 5544 5544 5543 5542 5541 5541 5540 5540 5540 5540 5540 5540 5540 5540 5540 5540 5540 5540 5541 5541 5542 5543 5544
5642 5641 5640 5638 5635 5634 5634 5631 5628 5626 5625 5624 5622 5619 5618 5617 5616 5614 5611 5609 5607 5605 5604 5602 5600 5598 5596 5593 5590 5589 5588 5586 5584 5582 5581 5579 5577 5574 5571 5569 5567 5565 5563 5561 5559 5556 5555 5553 5551 5550 5548 5547 5545 5544 5543 5542 5541 5541 5540 5539 5538 5537 5537 5536 5535 5534 5534 5533 5532 5532 5531 5531 5531 5530 5530 5530 5531 5531 5531 5531 5532 5532 5532 5533 5534 5535
5637 5635 5634 5633 5630 5629 5627 5625 5623 5621 5620 5618 5616 5614 5611 5610 5610 5609 5606 5603 5601 5600 5598 5596 5593 5591 5590 5587 5584 5582 5580 5580 5578 5576 5574 5572 5570 5568 5565 5563 5560 5558 5556 5554 5551 5549 5547 5545 5543 5541 5540 5538 5536 5535 5534 5533 5532 5532 5531 5530 5530 5529 5528 5527 5526 5526 5525 5524 5524 5523 5523 5522 5522 5522 5521 5521 5522 5522 5522 5522 5522 5523 5523 5524 5525 5525
5632 5631 5629 5627 5625 5623 5622 5620 5618 5616 5614 5613 5611 5609 5606 5604 5603 5602 5601 5598 5596 5594 5593 5590 5588 5585 5582 5580 5578 5576 5574 5573 5571 5570 5568 5565 5563 5560 5558 5556 5554 5552 5550 5547 5545 5542 5540 5538 5536 5533 5531 5530 5528 5526 5525 5524 5523 5523 5522 5521 5520 5520 5519 5518 5518 5517 5516 5515 5515 5514 5514 5513 5513 5513 5513 5512 5512 5513 5513 5513 5513 5514 5514 5515 5515 5516
5627 5625 5624 5622 5620 5618 5616 5615 5613 5610 5608 5607 5606 5604 5602 5599 5597 5596 5595 5592 5590 5588 5587 5585 5582 5579 5576 5574 5571 5569 5567 5566 5565 5563 5561 5559 5556 5554 5552 5550 5547 5545 5543 5541 5538 5535 5532 5531 5529 5526 5523 5521 5520 5518 5516 5515 5514 5514 5513 5512 5511 5511 5510 5509 5509 5508 5507 5507 5506 5505 5505 5505 5504 5504 5504 5504 5503 5503 5504 5504 5504 5504 5505 5505 5506 5506
5622 5620 5619 5617 5615 5613 5611 5610 5608 5605 5603 5602 5600 5599 5596 5594 5592 5590 5589 5586 5584 5582 5581 5579 5576 5573 5570 5567 5565 5563 5561 5559 5558 5557 5555 5552 5549 5546 5545 5543 5540 5538 5536 5535 5531 5528 5525 5524 5522 5519 5516 5514 5512 5510 5508 5507 5506 5505 5504 5503 5503 5502 5501 5501 5500 5499 5499 5498 5497 5496 5496 5496 5495 5495 5495 5495 5495 5494 5494 5495 5495 5495 5495 5495 5496 5497
5617 5616 5614 5611 5609 5607 5606 5604 5603 5600 5598 5597 5595 5594 5591 5589 5586 5585 5583 5581 5578 5576 5575 5573 5570 5567 5564 5561 5558 5556 5555 5553 5551 5550 5549 5546 5543 5540 5538 5537 5535 5531 5529 5528 5525 5522 5519 5517 5515 5513 5510 5507 5505 5502 5500 5499 5498 5496 5495 5495 5494 5494 5493 5492 5491 5491 5490 5489 5489 5488 5487 5487 5486 5486 5486 5486 5485 5485 5485 5485 5485 5485 5486 5486 5486 5487
5612 5610 5609 5607 5605 5602 5600 5599 5598 5596 5594 5592 5590 5588 5586 5583 5581 5579 5577 5575 5572 5570 5568 5566 5564 5562 5559 5555 5551 5549 5548 5547 5545 5543 5542 5540 5537 5533 5531 5530 5528 5525 5522 5521 5519 5516 5513 5511 5509 5506 5504 5501 5498 5496 5494 5492 5490 5489 5487 5486 5485 5485 5484 5484 5483 5482 5482 5481 5480 5480 5479 5478 5478 5478 5477 5477 5477 5477 5476 5476 5476 5476 5476 5477 5477 5478
5607 5605 5604 5602 5600 5598 5596 5594 5592 5591 5589 5587 5585 5582 5580 5578 5575 5573 5571 5569 5566 5564 5562 5560 5558 5555 5553 5550 5545 5542 5541 5541 5539 5537 5535 5534 5531 5528 5525 5524 5522 5519 5516 5515 5512 5509 5507 5505 5502 5500 5497 5495 5492 5489 5487 5485 5483 5481 5480 5478 5477 5476 5475 5475 5475 5474 5473 5473 5472 5471 5471 5470 5470 5469 5469 5468 5468 5468 5468 5468 5468 5468 5468 5468 5468 5469
5602 5600 5599 5597 5595 5593 5591 5589 5587 5586 5584 5582 5580 5578 5575 5572 5570 5568 5565 5563 5560 5558 5556 5554 5551 5549 5547 5544 5540 5536 5535 5534 5533 5531 5529 5528 5525 5522 5519 5518 5516 5513 5510 5509 5506 5503 5501 5499 5496 5494 5491 5488 5485 5483 5480 5478 5476 5474 5472 5471 5469 5468 5467 5466 5465 5465 5465 5464 5464 5463 5462 5462 5461 5460 5460 5460 5460 5459 5459 5459 5459 5459 5459 5459 5459 5460
5597 5596 5594 5593 5591 5589 5586 5584 5583 5581 5579 5576 5574 5572 5570 5567 5565 5562 5560 5557 5555 5553 5550 5548 5545 5543 5540 5538 5535 5531 5528 5528 5526 5525 5523 5522 5520 5517 5513 5512 5510 5507 5505 5502 5500 5497 5495 5492 5490 5487 5485 5481 5479 5475 5473 5471 5469 5467 5465 5463 5461 5460 5459 5457 5457 5456 5455 5455 5455 5454 5453 5453 5452 5452 5451 5451 5450 5450 5450 5450 5450 5450 5450 5450 5451 5451
5593 5591 5590 5589 5587 5584 5581 5579 5577 5575 5573 5571 5569 5567 5564 5562 5559 5557 5554 5552 5550 5547 5545 5542 5540 5537 5535 5532 5529 5525 5522 5521 5520 5519 5517 5516 5514 5511 5508 5506 5504 5502 5499 5496 5494 5491 5489 5486 5484 5480 5478 5475 5471 5469 5466 5463 5461 5459 5457 5455 5453 5451 5450 5449 5448 5447 5446 5445 5445 5445 5444 5444 5443 5442 5442 5442 5441 5441 5441 5441 5441 5441 5441 5442 5442 5443
5589 5586 5585 5583 5582 5580 5577 5575 5572 5570 5568 5566 5564 5561 5559 5556 5554 5551 5549 5546 5544 5542 5539 5537 5534 5531 5529 5526 5523 5520 5517 5515 5514 5513 5511 5510 5509 5505 5503 5501 5499 5496 5493 5491 5488 5485 5483 5480 5477 5474 5471 5468 5464 5461 5458 5455 5453 5451 5449 5447 5445 5443 5441 5440 5439 5438 5437 5436 5435 5435 5434 5434 5433 5433 5433 5432 5432 5432 5432 5432 5432 5432 5433 5433 5434 5434
5584 5582 5580 5578 5576 5574 5572 5570 5567 5565 5563 5560 5558 5556 5553 5551 5549 5546 5543 5541 5539 5536 5534 5532 5529 5526 5523 5521 5518 5515 5511 5510 5508 5507 5506 5505 5503 5500 5497 5495 5493 5490 5488 5485 5482 5480 5476 5474 5471 5468 5464 5460 5457 5453 5450 5448 5445 5442 5440 5438 5436 5434 5432 5431 5430 5429 5427 5427 5426 5425 5425 5424 5424 5423 5423 5423 5423 5422 5422 5423 5423 5423 5424 5424 5425 5426
5580 5578 5575 5573 5571 5569 5567 5565 5562 5560 5558 5555 5553 5550 5548 5546 5543 5541 5538 5536 5534 5531 5529 5527 5524 5521 5519 5516 5514 5510 5506 5504 5503 5502 5500 5499 5498 5495 5492 5489 5487 5485 5481 5479 5476 5474 5470 5467 5464 5460 5457 5453 5449 5445 5442 5440 5436 5433 5431 5429 5427 5425 5423 5422 5420 5419 5418 5417 5416 5416 5415 5415 5414 5414 5414 5414 5413 5413 5413 5414 5414 5414 5415 5415 5416 5417
5575 5573 5571 5569 5566 5565 5562 5560 5558 5555 5553 5550 5548 5545 5543 5541 5538 5535 5533 5531 5529 5526 5524 5522 5520 5517 5514 5512 5510 5506 5502 5499 5498 5497 5496 5494 5492 5489 5486 5483 5481 5479 5475 5472 5470 5467 5464 5460 5456 5453 5450 5446 5442 5438 5434 5431 5428 5425 5422 5420 5418 5416 5414 5413 5411 5410 5410 5409 5408 5407 5406 5406 5405 5405 5405 5405 5405 5405 5405 5405 5405 5405 5406 5407 5407 5408
5570 5568 5566 5564 5562 5560 5558 5555 5553 5550 5548 5546 5543 5541 5538 5536 5533 5531 5528 5526 5524 5522 5520 5517 5515 5512 5510 5508 5505 5501 5497 5495 5493 5492 5491 5489 5486 5483 5480 5477 5475 5473 5470 5466 5463 5460 5458 5454 5449 5445 5441 5438 5434 5430 5426 5422 5419 5416 5414 5411 5409 5408 5406 5405 5403 5402 5401 5400 5400 5399 5398 5398 5397 5397 5397 5397 5396 5396 5396 5397 5397 5397 5398 5398 5399 5400
5566 5564 5562 5560 5557 5555 5553 5550 5548 5545 5543 5541 5539 5536 5534 5531 5529 5526 5524 5521 5520 5517 5515 5513 5510 5508 5505 5503 5500 5497 5494 5490 5488 5487 5486 5484 5481 5477 5473 5470 5469 5467 5464 5460 5457 5454 5450 5446 5442 5437 5433 5430 5426 5422 5418 5414 5411 5408 5406 5404 5402 5400 5398 5397 5396 5395 5394 5393 5392 5392 5391 5390 5390 5390 5390 5389 5389 5389 5389 5389 5389 5389 5390 5390 5391 5392
5561 5559 5557 5555 5553 5550 5548 5545 5543 5541 5538 5536 5534 5531 5529 5527 5525 5522 5519 5517 5515 5513 5510 5508 5506 5504 5501 5499 5496 5493 5490 5486 5484 5482 5480 5479 5476 5472 5467 5465 5462 5460 5457 5455 5451 5447 5443 5439 5434 5430 5425 5422 5418 5414 5410 5407 5404 5401 5399 5397 5395 5393 5392 5390 5390 5389 5388 5387 5386 5385 5385 5384 5384 5383 5383 5382 5382 5382 5382 5381 5381 5382 5382 5383 5384 5384
5557 5555 5553 5550 5548 5545 5543 5541 5538 5536 5533 5531 5529 5526 5524 5522 5520 5518 5515 5513 5511 5509 5506 5504 5501 5500 5497 5495 5492 5489 5485 5482 5479 5477 5475 5474 5470 5466 5462 5459 5456 5452 5450 5448 5445 5441 5436 5431 5426 5422 5419 5415 5410 5407 5404 5401 5398 5395 5394 5392 5390 5388 5386 5385 5384 5383 5382 5382 5381 5380 5380 5379 5378 5378 5377 5376 5376 5375 5375 5375 5375 5375 5375 5376 5376 5377
5552 5550 5548 5545 5543 5541 5539 5536 5534 5531 5529 5526 5524 5522 5519 5517 5515 5513 5510 5508 5507 5505 5502 5499 5497 5495 5493 5490 5488 5485 5480 5477 5475 5473 5471 5468 5464 5460 5456 5454 5449 5445 5442 5440 5438 5435 5430 5424 5419 5415 5412 5408 5405 5401 5398 5395 5393 5391 5389 5387 5385 5383 5382 5380 5380 5379 5378 5377 5376 5376 5375 5374 5374 5373 5372 5371 5371 5370 5369 5369 5368 5368 5368 5369 5370 5370
5548 5545 5543 5541 5538 5536 5534 5531 5529 5526 5524 5522 5520 5517 5515 5513 5511 5509 5506 5504 5502 5500 5498 5495 5493 5490 5488 5486 5484 5480 5476 5472 5469 5467 5466 5464 5459 5454 5451 5448 5443 5438 5434 5432 5431 5428 5424 5419 5413 5409 5405 5403 5400 5396 5393 5390 5389 5386 5385 5383 5381 5379 5378 5376 5375 5375 5374 5373 5372 5371 5371 5370 5369 5368 5368 5367 5366 5365 5364 5363 5363 5362 5362 5363 5364 5364
5543 5540 5538 5536 5534 5531 5529 5527 5525 5522 5520 5518 5515 5513 5511 5509 5507 5505 5502 5500 5498 5496 5494 5492 5489 5486 5484 5482 5479 5476 5472 5468 5465 5462 5460 5458 5454 5449 5445 5442 5438 5433 5428 5425 5422 5420 5418 5414 5409 5404 5400 5398 5395 5392 5389 5387 5385 5383 5381 5380 5378 5376 5375 5373 5372 5371 5370 5369 5369 5368 5367 5366 5365 5364 5363 5363 5362 5361 5360 5359 5358 5357 5357 5357 5358 5358
5538 5536 5534 5531 5529 5527 5525 5523 5520 5518 5516 5514 5512 5510 5508 5505 5503 5501 5499 5496 5495 5492 5490 5488 5485 5482 5480 5477 5475 5472 5468 5464 5460 5457 5455 5453 5449 5445 5440 5436 5433 5428 5424 5420 5415 5412 5410 5407 5404 5400 5396 5393 5391 5389 5386 5384 5382 5380 5379 5377 5375 5374 5372 5371 5370 5368 5367 5366 5365 5364 5363 5362 5361 5360 5359 5359 5358 5356 5355 5355 5354 5353 5352 5352 5352 5352
5533 5531 5529 5527 5525 5523 5520 5519 5516 5515 5512 5510 5508 5506 5504 5502 5500 5498 5495 5493 5491 5489 5486 5484 5482 5479 5476 5473 5470 5467 5464 5460 5456 5453 5450 5447 5444 5440 5436 5431 5427 5424 5420 5415 5411 5407 5404 5401 5398 5396 5393 5390 5388 5385 5384 5382 5380 5378 5376 5375 5373 5372 5370 5369 5368 5366 5365 5364 5363 5361 5360 5359 5358 5357 5355 5355 5354 5352 5351 5350 5350 5349 5348 5347 5346 5346
5529 5527 5525 5523 5521 5519 5517 5515 5513 5511 5509 5507 5505 5503 5501 5499 5497 5495 5492 5490 5487 5485 5482 5480 5478 5475 5473 5470 5467 5463 5459 5455 5451 5448 5445 5442 5439 5435 5431 5427 5423 5419 5416 5411 5407 5404 5401 5397 5394 5392 5390 5388 5385 5383 5381 5380 5378 5376 5374 5373 5371 5370 5368 5367 5366 5364 5363 5362 5360 5359 5358 5356 5355 5354 5352 5351 5350 5349 5347 5346 5345 5344 5343 5342 5341 5340
5525 5523 5521 5519 5517 5515 5513 5511 5510 5508 5506 5504 5502 5500 5498 5496 5494 5491 5489 5486 5484 5481 5479 5476 5473 5470 5468 5466 5463 5460 5456 5451 5447 5444 5440 5437 5434 5431 5427 5423 5418 5415 5412 5408 5404 5400 5398 5395 5391 5389 5387 5385 5384 5381 5380 5378 5376 5374 5372 5371 5370 5368 5366 5365 5364 5362 5361 5360 5358 5357 5355 5354 5352 5350 5349 5348 5346 5345 5344 5343 5341 5340 5339 5338 5337 5336
5522 5520 5518 5516 5515 5513 5510 5509 5507 5505 5503 5501 5499 5497 5495 5493 5490 5488 5485 5483 5480 5478 5475 5472 5469 5466 5463 5461 5458 5455 5452 5448 5444 5440 5436 5433 5430 5427 5423 5419 5415 5411 5408 5405 5401 5397 5395 5392 5389 5387 5385 5383 5381 5380 5378 5376 5375 5373 5371 5369 5368 5366 5365 5363 5361 5360 5358 5357 5355 5354 5352 5350 5349 5347 5346 5345 5343 5341 5340 5339 5338 5336 5335 5334 5333 5332
5519 5517 5515 5513 5512 5510 5508 5506 5504 5502 5500 5498 5496 5494 5492 5490 5487 5485 5482 5480 5477 5475 5472 5469 5466 5462 5459 5456 5453 5450 5447 5444 5440 5436 5432 5429 5425 5422 5419 5415 5411 5407 5404 5401 5398 5395 5392 5390 5387 5385 5383 5381 5380 5378 5376 5374 5372 5371 5369 5367 5366 5364 5362 5360 5359 5357 5355 5354 5352 5351 5349 5347 5346 5344 5342 5341 5339 5338 5336 5335 5334 5332 5331 5330 5329 5328
5516 5514 5512 5511 5509 5507 5505 5504 5501 5500 5497 5495 5493 5491 5489 5487 5484 5482 5479 5476 5474 5471 5469 5465 5462 5459 5455 5452 5449 5446 5443 5440 5436 5432 5429 5425 5421 5418 5415 5412 5408 5404 5401 5398 5395 5393 5390 5387 5385 5383 5381 5379 5377 5376 5374 5372 5370 5368 5367 5365 5364 5362 5360 5358 5356 5354 5352 5351 5349 5348 5346 5344 5342 5341 5339 5337 5335 5334 5332 5331 5330 5328 5327 5325 5324 5323
5513 5511 5510 5508 5506 5505 5503 5501 5499 5497 5495 5493 5490 5488 5486 5484 5481 5478 5476 5473 5470 5468 5465 5462 5459 5455 5452 5448 5445 5442 5438 5435 5432 5428 5425 5421 5418 5414 5411 5408 5405 5402 5398 5395 5392 5390 5388 5385 5382 5380 5379 5377 5375 5374 5372 5370 5368 5366 5364 5363 5361 5360 5358 5355 5353 5351 5349 5347 5346 5344 5342 5341 5339 5337 5335 5334 5332 5330 5329 5327 5325 5324 5322 5321 5320 5319
5510 5509 5507 5505 5504 5502 5500 5498 5496 5494 5492 5490 5488 5485 5483 5481 5478 5475 5472 5470 5467 5464 5461 5458 5455 5451 5448 5444 5440 5437 5434 5431 5427 5424 5421 5418 5414 5411 5408 5405 5401 5399 5396 5393 5390 5387 5385 5383 5380 5378 5376 5375 5373 5371 5370 5367 5365 5363 5361 5359 5358 5357 5355 5353 5350 5347 5345 5344 5342 5340 5339 5337 5335 5334 5332 5330 5328 5326 5325 5322 5321 5319 5318 5316 5315 5314
5508 5506 5505 5503 5501 5499 5497 5495 5493 5491 5489 5487 5485 5483 5480 5478 5475 5473 5470 5467 5464 5460 5458 5455 5452 5448 5444 5440 5436 5433 5430 5426 5423 5420 5417 5414 5411 5408 5405 5401 5398 5395 5393 5390 5388 5385 5383 5380 5378 5376 5374 5372 5370 5368 5366 5365 5363 5360 5358 5356 5354 5353 5352 5350 5347 5345 5342 5340 5338 5337 5335 5333 5331 5329 5328 5326 5324 5322 5320 5318 5316 5315 5313 5311 5310 5309
5505 5504 5502 5500 5498 5496 5495 5492 5490 5488 5486 5484 5482 5479 5477 5475 5472 5470 5467 5464 5461 5458 5455 5451 5448 5445 5442 5437 5433 5429 5425 5421 5419 5416 5413 5410 5407 5404 5401 5398 5395 5392 5390 5388 5385 5383 5380 5378 5376 5373 5371 5369 5367 5365 5363 5361 5359 5357 5355 5353 5350 5349 5347 5346 5344 5341 5339 5336 5334 5332 5330 5328 5326 5325 5323 5321 5319 5317 5315 5314 5312 5310 5309 5307 5305 5304
5503 5501 5500 5498 5496 5494 5492 5490 5488 5485 5483 5481 5479 5476 5474 5471 5469 5466 5464 5461 5458 5455 5451 5448 5445 5441 5438 5435 5431 5426 5422 5417 5414 5411 5408 5405 5403 5400 5397 5395 5392 5389 5387 5385 5383 5380 5378 5375 5373 5371 5368 5366 5364 5362 5360 5357 5355 5354 5351 5349 5347 5345 5343 5341 5340 5338 5335 5333 5331 5328 5326 5323 5321 5320 5318 5317 5315 5313 5311 5310 5308 5306 5304 5302 5300 5299
5500 5499 5497 5495 5493 5491 5489 5487 5485 5483 5480 5478 5476 5473 5471 5468 5466 5463 5460 5458 5455 5451 5448 5445 5441 5438 5434 5430 5427 5424 5420 5415 5410 5406 5403 5400 5398 5395 5393 5391 5388 5386 5384 5381 5380 5378 5375 5373 5370 5368 5365 5363 5361 5359 5356 5354 5351 5350 5348 5345 5343 5341 5339 5337 5335 5333 5331 5329 5327 5325 5322 5319 5317 5315 5314 5312 5311 5309 5307 5305 5303 5301 5299 5297 5295 5294
5498 5496 5495 5493 5491 5489 5487 5485 5482 5480 5478 5475 5473 5470 5468 5465 5462 5460 5457 5454 5451 5448 5444 5441 5438 5435 5430 5427 5424 5420 5416 5412 5408 5404 5400 5396 5394 5391 5389 5387 5385 5383 5380 5378 5376 5374 5372 5370 5368 5365 5363 5360 5358 5356 5353 5350 5348 5345 5344 5342 5340 5338 5335 5334 5331 5329 5327 5325 5323 5320 5318 5315 5313 5311 5309 5308 5306 5304 5302 5300 5298 5296 5294 5292 5291 5289
5496 5495 5492 5490 5489 5486 5485 5482 5480 5478 5475 5473 5470 5467 5465 5462 5459 5456 5454 5451 5448 5445 5441 5438 5434 5431 5427 5423 5420 5416 5413 5409 5405 5401 5397 5394 5390 5388 5385 5383 5381 5379 5377 5375 5373 5371 5369 5367 5365 5363 5360 5357 5355 5353 5350 5348 5345 5342 5340 5338 5336 5335 5332 5330 5328 5326 5323 5321 5319 5316 5314 5311 5309 5307 5305 5303 5301 5300 5297 5295 5293 5290 5289 5287 5285 5284
5494 5492 5490 5488 5486 5484 5482 5480 5478 5475 5473 5470 5467 5464 5462 5459 5456 5454 5450 5448 5445 5441 5438 5435 5431 5427 5423 5419 5415 5412 5408 5405 5401 5398 5395 5391 5388 5385 5383 5380 5378 5376 5375 5373 5371 5369 5367 5365 5362 5360 5357 5355 5352 5350 5348 5346 5343 5340 5337 5335 5333 5331 5329 5328 5325 5323 5320 5318 5315 5313 5310 5308 5306 5303 5301 5299 5297 5295 5293 5291 5288 5286 5284 5282 5280 5279
5491 5490 5488 5486 5484 5482 5480 5477 5475 5473 5470 5468 5465 5462 5459 5456 5454 5451 5448 5445 5442 5439 5435 5431 5427 5424 5420 5415 5411 5408 5404 5400 5397 5394 5391 5388 5385 5383 5380 5378 5376 5374 5372 5370 5369 5367 5365 5363 5360 5358 5355 5352 5350 5347 5345 5343 5341 5339 5336 5333 5331 5329 5327 5325 5323 5320 5318 5315 5313 5310 5308 5305 5303 5300 5298 5295 5294 5292 5290 5288 5285 5282 5280 5277 5275 5274
5489 5488 5486 5484 5482 5480 5477 5475 5473 5470 5468 5465 5463 5460 5457 5454 5451 5448 5445 5442 5439 5435 5432 5428 5424 5420 5416 5412 5408 5404 5400 5396 5393 5390 5387 5385 5382 5380 5378 5376 5374 5372 5370 5368 5367 5365 5363 5361 5359 5356 5354 5350 5347 5345 5342 5341 5339 5337 5334 5332 5329 5327 5325 5322 5320 5318 5315 5313 5310 5308 5306 5303 5300 5298 5295 5292 5290 5289 5287 5285 5282 5280 5276 5274 5271 5270
5487 5485 5484 5482 5480 5477 5475 5473 5470 5468 5465 5463 5460 5458 5455 5452 5449 5446 5443 5440 5436 5433 5429 5425 5421 5417 5412 5408 5404 5400 5396 5393 5389 5386 5384 5382 5380 5378 5375 5374 5372 5370 5368 5366 5365 5363 5361 5359 5357 5355 5352 5349 5345 5342 5340 5338 5335 5334 5332 5330 5328 5325 5322 5320 5318 5316 5313 5311 5308 5305 5303 5300 5297 5295 5292 5289 5286 5285 5283 5282 5280 5277 5273 5270 5268 5266